Simultaneous Nadir Overpasses (SNOs) Predictions

Prediction of SNOs near equator between AQUA and NPP Satellite Orbit:

Table of predicted SNOs near equator for the next 14.0 days since TLE Epoch: 5/27/2019
Index Date (AQUA) Time (AQUA) AQUA Lat,Lon Date (NPP) Time (NPP) NPP Lat,Lon Distance(km) Time Diff (sec)
1 05/27/2019 16:25:25 -4.36, 136.94 05/27/2019 16:15:56 -4.29, 136.59 39.57 569
2 05/27/2019 17:13:41 -0.21, -54.47 05/27/2019 17:05:27 -0.31, -55.08 69.22 494
3 05/27/2019 18:01:47 4.77, 114.16 05/27/2019 17:54:49 4.94, 113.28 98.97 418
4 05/30/2019 07:59:37 29.99, 79.27 05/30/2019 07:49:37 30.41, 78.68 73.29 600
5 05/30/2019 08:41:27 -2.75,-106.84 05/30/2019 08:32:25 -2.67,-107.28 49.80 542
6 05/30/2019 09:29:44 -1.76, 61.74 05/30/2019 09:21:56 -1.93, 61.04 79.30 468
7 06/02/2019 00:09:23 5.70,-159.25 06/01/2019 23:59:31 5.63,-159.51 29.67 592
8 06/02/2019 00:57:28 -1.08, 9.40 06/02/2019 00:48:53 -1.00, 8.86 60.00 515
9 06/02/2019 01:45:45 -3.43, 177.97 06/02/2019 01:38:24 -3.60, 177.19 89.21 441
10 06/04/2019 16:25:24 4.10, -43.03 06/04/2019 16:15:59 4.02, -43.38 39.81 565
11 06/04/2019 17:13:30 0.46, 125.60 06/04/2019 17:05:21 0.61, 124.99 70.11 489
12 06/04/2019 18:01:46 -5.03, -65.81 06/04/2019 17:54:52 -5.20, -66.69 99.15 414
13 06/07/2019 07:59:31 -30.00,-100.72 06/07/2019 07:49:31 -30.08,-101.22 49.35 600
14 06/07/2019 08:41:25 2.44, 73.20 06/07/2019 08:32:27 2.36, 72.76 49.98 538
15 06/07/2019 09:29:31 2.12,-118.17 06/07/2019 09:21:49 2.28,-118.87 80.14 462
16 06/10/2019 00:09:11 -5.41, 20.83 06/09/2019 23:59:25 -5.34, 20.57 30.60 586
17 06/10/2019 00:57:27 0.85,-170.58 06/10/2019 00:48:56 0.75,-171.11 60.24 511
18 06/10/2019 01:45:33 3.72, -1.95 06/10/2019 01:38:18 3.88, -2.74 90.18 435




NCC Satellite Simultaneous Nadir Overpasses (SNOs) Prediction Service
